Regional Weather Roundup
Issued by NWS

Home | Current Version | Previous Version | Text Only | Print | Product List | Glossary On
Versions: 1 2 3 4 5 6 7 8 9 10 11 12 13 14 15 16 17 18 19 20 21 22 23 24 25 26 27 28 29 30 31 32 33 34 35 36 37 38 39 40 41 42 43 44 45 46 47 48 49 50
000
ASUS43 KLOT 301508
RWRIL

ILLINOIS REGIONAL WEATHER ROUNDUP
NATIONAL WEATHER SERVICE CHICAGO/ROMEOVILLE IL
1000 AM CDT MON MAY 30 2016

NOTE: "FAIR" INDICATES FEW OR NO CLOUDS BELOW 12,000 FEET WITH NO
SIGNIFICANT WEATHER AND/OR OBSTRUCTIONS TO VISIBILITY.

* THESE STATIONS ARE NOT UNDER NWS QUALITY CONTROL. THEY ALSO MAY NOT
  REPORT WEATHER SUCH AS PRECIPITATION OR FOG.

ILZ001-002-007-009-015-016-024-301600-
NORTHWEST ILLINOIS

CITY           SKY/WX    TMP DP  RH WIND       PRES   REMARKS
MOLINE         CLOUDY    74  64  71 CALM      30.04F
STERLING*      SUNNY     77  64  64 CALM      30.05F
SAVANNA*       SUNNY     76  63  64 CALM      30.05S
$$

ILZ003-004-008-010-011-017-018-301600-
NORTH CENTRAL ILLINOIS

CITY           SKY/WX    TMP DP  RH WIND       PRES   REMARKS
ROCKFORD       MOSUNNY   78  62  57 W3        30.06S HX  80
FREEPORT*      SUNNY     76  58  54 NW6       30.06F
ROCHELLE*      SUNNY     76  62  60 W8        30.06R
DE KALB*       SUNNY     77  62  59 W8        30.05S
$$

ILZ005-006-012>014-019>023-301600-
NORTHEAST ILLINOIS

CITY           SKY/WX    TMP DP  RH WIND       PRES   REMARKS
CHICAGO-OHARE  MOSUNNY   77  59  53 SW6       30.03S
CHICAGO-MIDWAY MOSUNNY   79  59  50 VRB5      30.03S HX  80
AURORA         SUNNY     79  62  56 SW7       30.04S HX  80
LANSING*       SUNNY     79  58  48 W9        30.04S HX  80
JOLIET*        SUNNY     82  60  47 SW6       30.04S HX  82
WAUKEGAN       SUNNY     77  58  51 SW3       30.02S
DUPAGE AIRPORT SUNNY     77  60  55 W8        30.03F
KANKAKEE*      SUNNY     81  60  50 SW6       30.07S HX  81
WHEELING       SUNNY     78  57  48 SW5       30.03F
MORRIS*        SUNNY     81  60  48 SW9       30.04S HX  81
ROMEOVILLE*    SUNNY     80  56  43 W9        30.04S HX  80
NORTHERLY ISL    N/A     72  59  63 E3          N/A
NORTHERLY ISL    N/A     72  59  63 E3          N/A
$$

LMZ740>746-301600-
SOUTHERN LAKE MICHIGAN

STATION/POSITION SKY/WX   TEMP    WIND        PRES    VSBY  WAVE
                          AIR SEA DIR/SP/G                  HT/PER
                          (F)     (DEG/KT/KT) (MB)    (MI)  (FT/S)
SOUTHERN BUOY              58 54  240/  2/  2 1016.4F         0
WILMETTE HARBOR            65 56  170/  4/  4   N/A           0
HARRISON CRIB              74     160/  1/  1   N/A
BURNHAM HARBOR             72     110/  1/  4   N/A
CALUMET HARBOR             76     210/  4/  5 1016.3S
BURNS HARBOR               70     290/  3/  4 1017.6S
MICHIGAN CITY              68     230/  6/  6   N/A
MICHIGAN CITY 6N           67 59  220/  2/  2   N/A           0
ST. JOSEPH                 63 63  210/  2/  4   N/A           1
$$

ILZ025>027-034>036-040-047-049-050-058-095>099-301600-
WEST-CENTRAL ILLINOIS

CITY           SKY/WX    TMP DP  RH WIND       PRES   REMARKS
QUINCY         SUNNY     79  64  60 VRB5      30.07F HX  81
GALESBURG*     MOSUNNY   76  62  60 W12       30.08R
MACOMB*        PTSUNNY   78  59  51 W12       30.08F
JACKSONVILLE*  SUNNY     81  63  53 W8        30.07F HX  82
PITTSFIELD*    SUNNY     80  65  59 NW6       30.08F HX  82
$$

ILZ028>032-037-038-041>044-048-051>054-059>061-301600-
CENTRAL ILLINOIS

CITY           SKY/WX    TMP DP  RH WIND       PRES   REMARKS
PONTIAC        SUNNY     82  62  49 W12       30.06F HX  83
BLOOMINGTON    SUNNY     79  65  62 SW8       30.08F HX  81
DECATUR        SUNNY     81  63  54 VRB3      30.07F HX  82
PEORIA         SUNNY     79  64  60 VRB6      30.06F HX  81
LACON*         SUNNY     78  62  58 CALM      30.04F HX  80
LINCOLN*       SUNNY     82  65  55 CALM      30.06F HX  84
SPRINGFIELD    SUNNY     82  62  50 W6        30.07F HX  83
TAYLORVILLE    MOSUNNY   79  62  57 SW6       30.08F HX  80
$$

ILZ033-039-045-046-055>057-062-063-301600-
EAST-CENTRAL ILLINOIS

CITY           SKY/WX    TMP DP  RH WIND       PRES   REMARKS
CHAMPAIGN      SUNNY     80  56  43 SW7       30.08F HX  80
RANTOUL*       SUNNY     82  58  44 W5        30.07F HX  82
MATTOON        SUNNY     80  57  45 VRB6      30.08S HX  80
PARIS*         SUNNY     80  59  48 CALM      30.09F HX  81
$$

ILZ079-100>102-301600-
SOUTHWEST ILLINOIS

CITY           SKY/WX    TMP DP  RH WIND       PRES   REMARKS
ALTON          PTSUNNY   79  66  65 W7        30.08F HX  81
BELLEVILLE     MOSUNNY   81  68  63 SW3       30.06F HX  84
CAHOKIA*       SUNNY     80  66  62 CALM      30.07F HX  82
SPARTA*        SUNNY     78  66  66 CALM      30.09F HX  80
$$

ILZ064>066-069>071-074>076-080>082-084>086-088>090-092>094-301600-
SOUTH-CENTRAL ILLINOIS

CITY           SKY/WX    TMP DP  RH WIND       PRES   REMARKS
CARBONDALE     SUNNY     80  64  58 NW5       30.08F HX  82
CAIRO*         SUNNY     79  65  61 N5        30.07F HX  81
EFFINGHAM*     PTSUNNY   80  64  57 W3        30.10F HX  81
MARION         MOSUNNY   81  64  57 N5        30.09F HX  82
MT. VERNON     SUNNY     81  64  57 CALM      30.09F HX  82
CENTRALIA*     SUNNY     81  64  55 CALM      30.08F HX  82
SALEM*         SUNNY     81  60  49 CALM      30.09F HX  81
METROPOLIS*    SUNNY     81  66  60 CALM      30.08F HX  83
$$

ILZ067-068-072-073-078-083-087-091-301600-
SOUTHEAST ILLINOIS

CITY           SKY/WX    TMP DP  RH WIND       PRES   REMARKS
LAWRENCEVILLE  SUNNY     81  60  48 NE5       30.08F HX  82
FLORA*         SUNNY     82  60  47 CALM      30.08F HX  82
FAIRFIELD*     SUNNY     80  62  54 CALM      30.07F HX  81
HARRISBURG*    SUNNY     78  66  66 CALM      30.09F HX  80
ROBINSON*      SUNNY     78  60  53 CALM      30.09S HX  80
CARMI*         SUNNY     79  65  61 S3        30.07F HX  81
$$

ABBREVIATIONS USED IN REMARKS
   TC - TEMPERATURE IN CELSIUS
  WCI - WIND CHILL INDEX
   HX - HEAT INDEX
  VSB - VISIBILITY
$$





USA.gov is the U.S. government's official web portal to all federal, state and local government web resources and services.